2023/01/30 00:00:00,---,-2.8
2023/01/30 00:10:00,---,-3.1
2023/01/30 00:20:00,---,-2.9
2023/01/30 00:30:00,---,-3.3
2023/01/30 00:40:00,---,-3.6
2023/01/30 00:50:00,---,-3.4
2023/01/30 01:00:00,---,-3.7
2023/01/30 01:10:00,---,-3.9
2023/01/30 01:20:00,---,-3.9
2023/01/30 01:30:00,---,-3.8
2023/01/30 01:40:00,---,-3.5
2023/01/30 01:50:00,---,-3.3
2023/01/30 02:00:00,---,-3.7
2023/01/30 02:10:00,---,-3.4
2023/01/30 02:20:00,---,-3.8
2023/01/30 02:30:00,---,-3.6
2023/01/30 02:40:00,---,-4.0
2023/01/30 02:50:00,---,-3.4
2023/01/30 03:00:00,---,-3.1
2023/01/30 03:10:00,---,-2.8
2023/01/30 03:20:00,---,-3.4
2023/01/30 03:30:00,---,-3.0
2023/01/30 03:40:00,---,-3.0
2023/01/30 03:50:00,---,-2.9
2023/01/30 04:00:00,---,-2.6
2023/01/30 04:10:00,---,-2.2
2023/01/30 04:20:00,---,-1.8
2023/01/30 04:30:00,---,-2.1
2023/01/30 04:40:00,---,-2.2
2023/01/30 04:50:00,---,-1.9
2023/01/30 05:00:00,---,-1.7
2023/01/30 05:10:00,---,-1.7
2023/01/30 05:20:00,---,-1.9
2023/01/30 05:30:00,---,-1.8
2023/01/30 05:40:00,---,-1.5
2023/01/30 05:50:00,---,-1.6
2023/01/30 06:00:00,---,-1.5
2023/01/30 06:10:00,---,-1.3
2023/01/30 06:20:00,---,-1.7
2023/01/30 06:30:00,---,-1.5
2023/01/30 06:40:00,---,-1.4
2023/01/30 06:50:00,---,-1.7
2023/01/30 07:00:00,---,-1.9
2023/01/30 07:10:00,---,-2.2
2023/01/30 07:20:00,---,-2.6
2023/01/30 07:30:00,---,-2.6
2023/01/30 07:40:00,109.1,-2.7
2023/01/30 07:50:00,109.1,-2.1
2023/01/30 08:00:00,108.9,-2.0
2023/01/30 08:10:00,108.9,-1.4
2023/01/30 08:20:00,109.0,-0.9
2023/01/30 08:30:00,109.0,-0.4
2023/01/30 08:40:00,109.0,-0.7
2023/01/30 08:50:00,109.0,-0.5
2023/01/30 09:00:00,109.4,-0.1
2023/01/30 09:10:00,109.6, 0.6
2023/01/30 09:20:00,109.6, 0.5
2023/01/30 09:30:00,109.8, 0.6
2023/01/30 09:40:00,109.6, 0.0
2023/01/30 09:50:00,110.1, 0.7
2023/01/30 10:00:00,110.3, 0.9
2023/01/30 10:10:00,110.2, 2.2
2023/01/30 10:20:00,110.0, 0.8
2023/01/30 10:30:00,109.9, 1.0
2023/01/30 10:40:00,109.7, 0.6
2023/01/30 10:50:00,109.5, 0.3
2023/01/30 11:00:00,109.8, 0.5
2023/01/30 11:10:00,110.7, 0.4
2023/01/30 11:20:00,111.2, 0.4
2023/01/30 11:30:00,111.9, 1.1
2023/01/30 11:40:00,111.7, 2.5
2023/01/30 11:50:00,112.4, 5.2
2023/01/30 12:00:00,112.3, 2.5
2023/01/30 12:10:00,111.8, 1.5
2023/01/30 12:20:00,111.7, 1.4
2023/01/30 12:30:00,111.6, 1.6
2023/01/30 12:40:00,111.3, 2.9
2023/01/30 12:50:00,111.3, 3.2
2023/01/30 13:00:00,111.0, 2.9
2023/01/30 13:10:00,110.7, 3.3
2023/01/30 13:20:00,110.2, 3.6
2023/01/30 13:30:00,109.8, 2.6
2023/01/30 13:40:00,109.5, 3.3
2023/01/30 13:50:00,109.5, 9.3
2023/01/30 14:00:00,109.4,10.0
2023/01/30 14:10:00,108.9, 4.7
2023/01/30 14:20:00,108.0, 1.2
2023/01/30 14:30:00,107.7, 1.8
2023/01/30 14:40:00,107.8, 1.2
2023/01/30 14:50:00,107.6, 1.2
2023/01/30 15:00:00,108.0, 4.0
2023/01/30 15:10:00,107.7, 2.9
2023/01/30 15:20:00,107.2, 0.9
2023/01/30 15:30:00,108.1, 1.0
2023/01/30 15:40:00,108.4, 1.0
2023/01/30 15:50:00,108.2, 0.1
2023/01/30 16:00:00,108.5, 0.3
2023/01/30 16:10:00,108.1, 0.0
2023/01/30 16:20:00,108.3, 0.3
2023/01/30 16:30:00,108.6, 0.0
2023/01/30 16:40:00,108.8, 0.4
2023/01/30 16:50:00,108.9,-0.2
2023/01/30 17:00:00,109.8, 0.0
2023/01/30 17:10:00,110.4,-0.1
2023/01/30 17:20:00,110.5,-0.2
2023/01/30 17:30:00,110.4,-0.3
2023/01/30 17:40:00,110.2,-0.5
2023/01/30 17:50:00,110.0,-0.2
2023/01/30 18:00:00,109.8,-0.2
2023/01/30 18:10:00,109.7,-0.4
2023/01/30 18:20:00,109.4,-0.6
2023/01/30 18:30:00,109.8,-0.6
2023/01/30 18:40:00,110.3,-0.3
2023/01/30 18:50:00,110.2,-0.4
2023/01/30 19:00:00,110.7,-0.6
2023/01/30 19:10:00,111.2,-0.3
2023/01/30 19:20:00,111.7,-0.1
2023/01/30 19:30:00,111.9,-0.6
2023/01/30 19:40:00,111.7,-0.5
2023/01/30 19:50:00,111.6,-0.4
2023/01/30 20:00:00,111.3,-0.3
2023/01/30 20:10:00,111.0,-0.5
2023/01/30 20:20:00,111.0, 0.0
2023/01/30 20:30:00,111.5,-0.5
2023/01/30 20:40:00,112.0,-0.3
2023/01/30 20:50:00,112.2,-0.3
2023/01/30 21:00:00,112.9,-0.5
2023/01/30 21:10:00,113.2,-0.3
2023/01/30 21:20:00,113.2,-0.5
2023/01/30 21:30:00,113.8,-0.2
2023/01/30 21:40:00,113.8,-0.3
2023/01/30 21:50:00,113.6,-0.3
2023/01/30 22:00:00,113.3,-0.3
2023/01/30 22:10:00,113.0,-0.6
2023/01/30 22:20:00,113.0,-0.6
2023/01/30 22:30:00,113.2,-0.5
2023/01/30 22:40:00,113.2,-0.6
2023/01/30 22:50:00,113.2,-0.4
2023/01/30 23:00:00,112.9,-0.7
2023/01/30 23:10:00,112.5,-0.6
2023/01/30 23:20:00,112.2,-0.6
2023/01/30 23:30:00,112.6,-0.6
2023/01/30 23:40:00,112.7,-0.5
2023/01/30 23:50:00,113.4,-0.5
